This demonstration page uses our WeatherBlox Daily Observations layout. Learn more.

Left ArrowRight Arrow

Hourly Observations for December 19, 2015

Temp ( °F °C ) Dew Point ( °F °C ) Humidity (%) Winds ( mph kmh ) Pressure ( in mb ) Visibility ( mi km ) Precip ( " mm )
12:53 am 00:53 Clear 32 0 22 -5.6 66 66 SW 3 6 30.35 1028 10 16 0.00 0.00
1:53 am 01:53 Clear 31 -0.6 23 -5 72 72 SSW 3 6 30.37 1028 10 16 0.00 0.00
2:53 am 02:53 Clear 30 -1.1 23 -5 75 75 S 3 6 30.37 1029 10 16 0.00 0.00
3:53 am 03:53 Clear 30 -1.1 24 -4.4 79 79 Calm 30.40 1030 10 16 0.00 0.00
4:53 am 04:53 Clear 30 -1.1 24 -4.4 79 79 Calm 30.42 1030 10 16 0.00 0.00
5:53 am 05:53 Clear 29 -1.7 24 -4.4 82 82 Calm 30.45 1031 10 16 0.00 0.00
6:53 am 06:53 Clear 30 -1.1 24 -4.4 79 79 Calm 30.47 1032 10 16 0.00 0.00
7:53 am 07:53 Sunny 30 -1.1 23 -5 75 75 SW 3 6 30.49 1033 10 16 0.00 0.00
8:53 am 08:53 Sunny 32 0 24 -4.4 73 73 SW 3 6 30.52 1034 10 16 0.00 0.00
9:53 am 09:53 Sunny 37 2.8 25 -3.9 62 62 W 3 6 30.54 1034 10 16 0.00 0.00
10:53 am 10:53 Sunny 42 5.6 21 -6.1 43 43 WNW 9 15 30.55 1034 10 16 0.00 0.00
11:53 am 11:53 Sunny 45 7.2 20 -6.7 37 37 NW 7 11 30.53 1034 10 16 0.00 0.00
12:53 pm 12:53 Sunny 49 9.4 17 -8.3 28 28 NNW 12 19 30.51 1033 10 16 0.00 0.00
1:53 pm 13:53 Sunny 50 10 18 -7.8 28 28 WNW 9 15 30.49 1032 10 16 0.00 0.00
2:53 pm 14:53 Sunny 52 11.1 18 -7.8 26 26 NNW 7 11 30.47 1032 10 16 0.00 0.00
3:53 pm 15:53 Sunny 52 11.1 17 -8.3 25 25 NNW 9 15 30.47 1032 10 16 0.00 0.00
4:53 pm 16:53 Sunny 51 10.6 19 -7.2 28 28 NW 8 13 30.48 1032 10 16 0.00 0.00
5:53 pm 17:53 Clear 47 8.3 22 -5.6 37 37 Calm 30.50 1033 10 16 0.00 0.00
6:53 pm 18:53 Clear 44 6.7 25 -3.9 47 47 Calm 30.50 1033 10 16 0.00 0.00
7:53 pm 19:53 Clear 40 4.4 29 -1.7 65 65 Calm 30.51 1033 10 16 0.00 0.00
8:53 pm 20:53 Clear 37 2.8 28 -2.2 70 70 Calm 30.52 1034 10 16 0.00 0.00
9:53 pm 21:53 Clear 35 1.7 28 -2.2 76 76 ENE 3 6 30.52 1033 10 16 0.00 0.00
10:53 pm 22:53 Clear 34 1.1 30 -1.1 85 85 Calm 30.50 1033 10 16 0.00 0.00
11:53 pm 23:53 Clear 34 1.1 29 -1.7 82 82 Calm 30.50 1033 10 16 0.00 0.00

Powered by AerisWeather